Location: Gollag?dem
(16.8053°N, 80.8024°E)
Time: 09:50:44
(UTC+00:00)

GPS 2-12 Rocket1 - Pass Details

Date: 13 August 2020
Orbit: 586 x 652 km, 20.0° (Epoch: 18 September)

Event Time Altitude Azimuth Distance (km) Brightness Sun altitude
Exits shadow 22:47:27 60° 267° (W) 723 3.0 -21.8°
Maximum altitude 22:48:17 85° 350° (N) 641 3.0 -21.6°
Drops below altitude 10° 22:53:04 10° 78° (ENE) 2,031 6.8 -20.6°
Sets 22:55:28 0° 79° (ENE) 2,946 8.0 -20.0°
